PulseSat

PulseSat

GSAT0207 (PRN E07)

Last updated on Jan. 16, 2019, 2:58 a.m. UTC

1 41859U 16069A   19015.31505503  .00000086  00000-0  00000+0 0  9990
2 41859  54.5933 176.2711 0002568 303.7130  56.2441  1.70473644 13430
UTC
Height (km)
Latitude
Longitude
Inclination
Orbital Period

Next 30 passes for location: Hong Kong

Rise time Rise Azimuth (degrees) Set time Set Azimuth (degrees) Duration Max altitude (degrees)

No matching passes for this satellites

PulseSat

PulseSat is the new satellites software and hardware trackering solution by Pulsely.
Satellite Two Line Element Set source: US Air Force Space Command

Download PulseSat for iOS
© 2017 Pulsely Limited